Overview Statistics Trail Chart Weather Telemetry Raw packets
 

This is the latest recevied weather packets stored in our database for station/object K7SKM. If no packets are shown the sender has not sent any weather packets the latest 10 day(s).

<< 52 53 54 55 56 57 58 >>
Time Temp. Humidity Pressure Rain* Wind** Luminosity Snow
1788322066 17.78° C 73% 1015.2 hPa 0 mm - 0 W/m² -
1788321762 17.78° C 73% 1015.2 hPa 0 mm - 0 W/m² -
1788321460 17.78° C 73% 1015.1 hPa 0 mm - 0 W/m² -
1788321156 17.78° C 73% 1015 hPa 0 mm - 0 W/m² -
1788320855 17.78° C 73% 1015.1 hPa 0 mm - 0 W/m² -
1788320550 17.78° C 73% 1015.2 hPa 0 mm - 0 W/m² -
1788320248 17.78° C 73% 1015.2 hPa 0 mm - 0 W/m² -
1788319944 17.78° C 73% 1015 hPa 0 mm - 0 W/m² -
1788319642 17.78° C 73% 1015.2 hPa 0 mm - 0 W/m² -
1788319338 17.78° C 73% 1015.3 hPa 0 mm - 0 W/m² -
1788319048 17.78° C 73% 1015.2 hPa 0 mm - 0 W/m² -
1788318733 17.78° C 74% 1015.1 hPa 0 mm - 0 W/m² -
1788318428 17.78° C 73% 1015 hPa 0 mm - 0 W/m² -
1788318127 17.78° C 73% 1015.1 hPa 0 mm - 0 W/m² -
1788317822 17.78° C 73% 1014.9 hPa 0 mm - 0 W/m² -
1788317517 17.78° C 72% 1014.8 hPa 0 mm - 0 W/m² -
1788317212 17.78° C 71% 1014.9 hPa 0 mm - 0 W/m² -
1788316907 17.78° C 71% 1014.7 hPa 0 mm - 0 W/m² -
1788316603 18.33° C 70% 1014.7 hPa 0 mm - 0 W/m² -
1788316298 18.33° C 68% 1014.7 hPa 0 mm - 2 W/m² -
1788315997 18.89° C 67% 1014.8 hPa 0 mm - 4 W/m² -
1788315693 18.89° C 66% 1014.7 hPa 0 mm - 9 W/m² -
1788315388 19.44° C 64% 1014.7 hPa 0 mm - 12 W/m² -
1788315083 19.44° C 64% 1014.6 hPa 0 mm - 16 W/m² -
1788314779 19.44° C 63% 1014.7 hPa 0 mm - 30 W/m² -

* Rain latest hour (hover to see other rain measurements)
** Current wind speed in m/s (hover to see current wind gust speed)